sat.trackr.live / text

‹ back to catalog

STARLINK-31770

NORAD 59601 · 2024-080A

PAYLOAD ACTIVE UNKNOWN

§ Identity

Operator
Country
US
Launch date
2024-04-28
Launch site
AFETR
Launch vehicle
Mass (kg)
RCS (m²)

Purposes: comms

External: N2YO · Heavens-Above · Gunter

§ Orbital elements

Epoch: 2026-09-21T08:29:40.949952Z

Period
94.27 min
Inclination
43.0035°
Eccentricity
0.0000920
Mean motion
15.27578698 rev/d
Perigee alt
482.4 km
Apogee alt
483.7 km
Semi-major
6,861.2 km
B*
1.7398e-5
RAAN
13.1870°
Arg perigee
265.2519°
Mean anomaly
94.8228°
Rev number
13,566

§ Raw data

STARLINK-317701 59601U 24080A   26264.35394618  .00000217  00000+0  17398-4 0  99952 59601  43.0035  13.1870 0000920 265.2519  94.8228 15.27578698135661

JSON: /api/v1/satellites/59601 · /tle

For live sub-satellite position, see the globe view (requires WebGL).

§ Visibility from observer

Set your observer location to see the next 7 days of passes ≥ 10°. The values pass through the URL so the page stays shareable.

No JS? Fill the form by hand. The geolocation button needs JavaScript.